This is the latest recevied weather packets stored in our database for station/object SP8NFE-1. If no packets are shown the sender has not sent any weather packets the latest 10 day(s).
| Time | Temp. | Humidity | Pressure | Rain* | Wind** | Luminosity | Snow |
|---|---|---|---|---|---|---|---|
| 1777920013 | 12.78° C | 60% | 0 hPa | 0 mm | - | - | - |
| 1777919716 | 13.33° C | 58% | 0 hPa | 0.25 mm | - | - | - |
| 1777919413 | 13.33° C | 57% | 0 hPa | 0.25 mm | - | - | - |
| 1777919113 | 13.89° C | 56% | 0 hPa | 0.25 mm | - | - | - |
| 1777918813 | 13.89° C | 54% | 0 hPa | 0.25 mm | - | - | - |
| 1777918514 | 13.89° C | 54% | 0 hPa | 0.25 mm | - | - | - |
| 1777918214 | 14.44° C | 52% | 0 hPa | 0.25 mm | - | - | - |
| 1777912515 | 23.33° C | 25% | 0 hPa | 0.25 mm | - | - | - |
| 1777912214 | 23.89° C | 25% | 0 hPa | 0.51 mm | - | - | - |
| 1777911914 | 23.89° C | 26% | 0 hPa | 0.51 mm | - | - | - |
| 1777910724 | 25° C | 24% | 0 hPa | 0.51 mm | - | - | - |
| 1777909514 | 25° C | 22% | 0 hPa | 0.25 mm | - | - | - |
| 1777908314 | 25° C | 21% | 0 hPa | 0 mm | - | - | - |
| 1777907436 | 25.56° C | 24% | 0 hPa | 0.76 mm | - | - | - |
| 1777906816 | 25.56° C | 20% | 0 hPa | 0.76 mm | - | - | - |
| 1777906514 | 26.11° C | 22% | 0 hPa | 0.76 mm | - | - | - |
| 1777906214 | 26.11° C | 22% | 0 hPa | 0.76 mm | - | - | - |
| 1777905914 | 26.11° C | 22% | 0 hPa | 0.76 mm | - | - | - |
| 1777905614 | 25.56° C | 22% | 0 hPa | 0.76 mm | - | - | - |
| 1777905317 | 25.56° C | 21% | 0 hPa | 0.76 mm | - | - | - |
| 1777904714 | 25.56° C | 20% | 0 hPa | 0.76 mm | - | - | - |
| 1777903214 | 26.11° C | 17% | 0 hPa | 0 mm | - | - | - |
| 1777902614 | 26.11° C | 19% | 0 hPa | 0 mm | - | - | - |
| 1777902314 | 26.11° C | 18% | 0 hPa | 0 mm | - | - | - |
| 1777902014 | 25.56° C | 20% | 0 hPa | 0 mm | - | - | - |
* Rain latest hour (hover to see other rain measurements)
** Current wind speed in m/s (hover to see current wind gust speed)